[[{"header":{"parameterUnit":"m.s-1","parameterCategory":1,"la1":30.2991,"la2":30.254,"lo1":-89.0895,"lo2":-89.0444,"dy":0.0017,"dx":0.0017,"nx":28,"ny":28,"refTime":"2024-05-08T09:00:00:Z","depth":0,"parameterNumber":2,"parameterNumberName":"U-component_of_WINDS"},"data":[0,0,0,0,0,0,0,0,0,0,0,0,0,0,0,0,0,0,0,0,0,0,0,0,0,0,0,0,0,0,0,0,0,0,0,0,0,0,0,0,0,0,0,0,0,0,0,0,0,0,0,0,0,0,0,0,0,0,-2.8129,-2.8129,0,-2.8164,-2.8165,-2.8165,-2.8154,-2.8153,-2.8153,-2.8152,-2.8187,-2.8189,-2.8191,0,0,0,0,0,0,0,0,0,0,0,0,0,-2.8053,-2.8055,-2.8129,-2.8129,-2.813,-2.8164,-2.8165,-2.8165,-2.8154,-2.8153,-2.8152,-2.8152,-2.8187,-2.8189,-2.8191,0,0,0,0,0,0,0,0,0,0,0,0,0,-2.8087,-2.8055,-2.8129,-2.8129,-2.8129,-2.8164,-2.8165,-2.8165,-2.8154,-2.8153,-2.8152,-2.8151,-2.8186,-2.8189,-2.8191,-2.8228,0,0,-2.8198,-2.82,0,0,0,0,0,0,0,0,-2.8085,-2.809,-2.8128,-2.8129,-2.8129,-2.8154,-2.8151,-2.8186,-2.8155,-2.8145,-2.8152,-2.8151,-2.8177,-2.818,-2.8189,-2.823,-2.8232,-2.8199,-2.82,-2.8201,-2.8202,0,0,0,0,0,0,0,-2.8083,-2.8088,-2.8143,-2.8129,-2.8129,-2.8127,-2.8131,-2.8158,-2.8167,-2.8146,-2.8145,-2.8149,-2.8177,-2.8187,-2.819,-2.8232,-2.8199,-2.8201,-2.8202,-2.8203,-2.8307,-2.8308,0,0,0,0,0,0,-2.808,-2.8086,-2.8142,-2.8144,-2.8104,-2.8129,-2.8133,-2.8147,-2.8166,-2.8168,-2.815,-2.8149,-2.8183,-2.8187,-2.8191,-2.8237,-2.8201,-2.8203,-2.8205,-2.8305,-2.8307,-2.8308,0,0,0,0,0,0,-2.8079,-2.8085,-2.814,-2.8115,-2.8122,-2.8132,-2.8147,-2.8148,-2.8158,-2.817,-2.8171,-2.8158,-2.8182,-2.8188,-2.822,-2.8238,-2.8205,-2.8207,-2.8304,-2.8306,-2.8308,-2.8328,0,0,0,0,0,0,-2.8076,-2.8085,-2.8099,-2.8115,-2.8123,-2.8168,-2.8148,-2.815,-2.8162,-2.8161,-2.8178,-2.818,-2.8182,-2.8216,-2.8222,-2.824,-2.8209,-2.8302,-2.8305,-2.8307,-2.8325,-2.833,-2.8334,0,0,0,0,0,-2.8074,-2.8102,-2.8099,-2.8106,-2.8141,-2.8169,-2.8174,-2.8176,-2.8164,-2.8178,-2.8186,-2.8179,-2.8235,-2.8219,-2.8226,-2.8246,-2.8301,-2.8304,-2.8307,-2.8324,-2.8329,-2.8334,0,0,0,0,0,0,-2.8087,-2.8105,-2.8101,-2.8136,-2.8151,-2.8167,-2.8185,-2.8181,-2.82,-2.8197,-2.8199,-2.8203,-2.8236,-2.8244,-2.8226,-2.8283,-2.8266,-2.8271,-2.8277,-2.8282,-2.8286,-2.8283,-2.8211,0,0,0,0,0,-2.8094,-2.8115,-2.813,-2.8159,-2.8167,-2.8175,-2.8187,-2.8188,-2.8203,-2.8209,-2.822,-2.8235,-2.8256,-2.827,-2.829,-2.8327,-2.8331,-2.8344,-2.8348,-2.8352,-2.8355,-2.8377,-2.8383,-2.8318,-2.8318,-2.8318,0,0,-2.8109,-2.8121,-2.8134,-2.8162,-2.8174,-2.8196,-2.818,-2.8204,-2.8221,-2.8213,-2.8244,-2.8252,-2.8269,-2.8304,-2.832,-2.8312,-2.8374,-2.8355,-2.8358,-2.836,-2.838,-2.8386,-2.8392,-2.832,-2.8319,-2.8319,0,0,-2.8147,-2.8158,-2.8184,-2.8197,-2.8215,-2.822,-2.8227,-2.8244,-2.8249,-2.828,-2.8275,-2.8295,-2.8331,-2.8344,-2.8355,-2.84,-2.8395,-2.8407,-2.8429,-2.8449,-2.8455,-2.8459,-2.8475,-2.8481,-2.841,-2.841,-2.841,0,-2.8162,-2.8196,-2.8198,-2.8223,-2.8236,-2.8231,-2.8258,-2.827,-2.8293,-2.8302,-2.8293,-2.8339,-2.835,-2.8389,-2.84,-2.8409,-2.8417,-2.8404,-2.8454,-2.8458,-2.8462,-2.8478,-2.8484,-2.8412,-2.8412,-2.8411,-2.8411,0,-2.8214,-2.8238,-2.8257,-2.828,-2.8295,-2.8321,-2.8328,-2.8343,-2.8343,-2.835,-2.8382,-2.8396,-2.8419,-2.8428,-2.8428,-2.8467,-2.8461,-2.8453,-2.8436,-2.847,-2.8485,-2.8491,-2.8414,-2.8413,-2.8413,-2.8412,0,0,-2.826,-2.8286,-2.8293,-2.8304,-2.8325,-2.8343,-2.8369,-2.8392,-2.8405,-2.8422,-2.8444,-2.8476,-2.8469,-2.8482,-2.8483,-2.8501,-2.8537,-2.8491,-2.8491,-2.8499,-2.8581,-2.8587,-2.8594,-2.8534,-2.8535,-2.8536,-2.858,0,-2.83,-2.8345,-2.8349,-2.839,-2.8412,-2.8409,-2.8432,-2.8447,-2.8454,-2.8474,-2.8482,-2.8505,-2.8494,-2.8501,-2.8519,-2.8528,-2.8553,-2.8525,-2.8554,-2.8555,-2.8549,-2.8601,-2.8607,-2.8648,-2.8585,-2.8586,-2.8587,0,-2.8352,-2.8371,-2.8414,-2.8433,-2.8442,-2.8463,-2.8485,-2.8504,-2.8522,-2.8526,-2.8541,-2.8541,-2.8568,-2.8551,-2.8589,-2.857,-2.8582,-2.8589,-2.859,-2.8593,-2.8573,-2.8605,-2.8661,-2.8667,-2.8596,-2.8595,-2.8595,0,-2.8381,-2.8418,-2.8449,-2.8458,-2.8481,-2.8495,-2.8505,-2.8522,-2.8536,-2.8556,-2.8565,-2.8588,-2.86,-2.8617,-2.8623,-2.861,-2.8661,-2.8644,-2.8666,-2.8665,-2.8676,-2.8675,-2.8734,-2.8684,-2.8684,-2.8684,-2.8684,0,-2.8424,-2.8451,-2.8462,-2.8481,-2.8511,-2.8516,-2.8546,-2.8555,-2.8571,-2.8592,-2.859,-2.861,-2.8617,-2.8638,-2.8643,-2.8674,-2.868,-2.8684,-2.8685,-2.8684,-2.8683,-2.8691,-2.8689,-2.8686,-2.8685,-2.8685,-2.8685,0,-2.8462,-2.847,-2.8504,-2.8523,-2.8528,-2.855,-2.8566,-2.8585,-2.8592,-2.8619,-2.8626,-2.8638,-2.8663,-2.8671,-2.8701,-2.8704,-2.8741,-2.8739,-2.8734,-2.8734,-2.8755,-2.8753,-2.8822,-2.8831,-2.8775,-2.8776,-2.8776,0,-2.8489,-2.8509,-2.8531,-2.8545,-2.8556,-2.8578,-2.8593,-2.8599,-2.8615,-2.8637,-2.8653,-2.8678,-2.8699,-2.8739,-2.875,-2.8774,-2.8773,-2.8795,-2.8776,-2.8775,-2.8773,-2.8772,-2.8774,-2.8799,-2.8799,-2.88,-2.88,0,-2.8536,-2.8539,-2.856,-2.8584,-2.8601,-2.862,-2.8637,-2.8649,-2.8658,-2.8675,-2.8701,-2.8717,-2.8748,-2.8773,-2.8797,-2.8808,-2.8806,-2.8806,-2.8812,-2.8811,-2.8808,-2.881,-2.8744,-2.8804,-2.8804,-2.8804,-2.8803,-2.8803,-2.8569,-2.8587,-2.8606,-2.863,-2.8644,-2.8661,-2.868,-2.869,-2.8712,-2.8738,-2.874,-2.8768,-2.8787,-2.8819,-2.8831,-2.8853,-2.8847,-2.8856,-2.8858,-2.886,-2.8862,-2.8805,-2.8858,-2.8858,-2.8858,-2.8858,-2.8857,0,-2.8616,-2.8628,-2.865,-2.8675,-2.8695,-2.8691,-2.8711,-2.8727,-2.8752,-2.877,-2.879,-2.882,-2.8845,-2.8859,-2.8884,-2.8899,-2.8899,-2.8905,-2.8904,-2.8907,-2.8866,-2.8858,-2.8905,-2.8905,-2.8905,-2.8905,-2.8905,-2.8905,-2.8643,-2.8674,-2.868,-2.8719,-2.8731,-2.8759,-2.877,-2.8786,-2.88,-2.8834,-2.8855,-2.8864,-2.888,-2.8907,-2.8929,-2.8933,-2.8942,-2.8949,-2.8952,-2.8914,-2.8909,-2.8905,-2.8897,-2.8951,-2.8951,-2.8991,-2.8991,-2.8991]},{"header":{"parameterUnit":"m.s-1","parameterCategory":1,"la1":30.2991,"la2":30.254,"lo1":-89.0895,"lo2":-89.0444,"dy":0.0017,"dx":0.0017,"nx":28,"ny":28,"refTime":"2024-05-08T09:00:00:Z","depth":0,"parameterNumber":3,"parameterNumberName":"V-component_of_WINDS"},"data":[0,0,0,0,0,0,0,0,0,0,0,0,0,0,0,0,0,0,0,0,0,0,0,0,0,0,0,0,0,0,0,0,0,0,0,0,0,0,0,0,0,0,0,0,0,0,0,0,0,0,0,0,0,0,0,0,0,0,7.0079,7.008,0,7.0207,7.0208,7.0209,7.0202,7.02,7.0198,7.0197,7.032,7.0325,7.033,0,0,0,0,0,0,0,0,0,0,0,0,0,6.982,6.9825,7.0078,7.008,7.0082,7.0206,7.0208,7.021,7.0202,7.02,7.0198,7.0196,7.0319,7.0325,7.0331,0,0,0,0,0,0,0,0,0,0,0,0,0,6.9938,6.9826,7.0078,7.0093,7.0096,7.0206,7.0208,7.021,7.0203,7.02,7.0197,7.0195,7.0317,7.0324,7.0331,7.0433,0,0,7.0354,7.0358,0,0,0,0,0,0,0,0,6.9932,6.9948,7.0089,7.0092,7.0096,7.0186,7.0162,7.0285,7.0204,7.0162,7.0197,7.0193,7.0277,7.0288,7.0318,7.0439,7.0444,7.0355,7.036,7.0363,7.0365,0,0,0,0,0,0,0,6.9924,6.9942,7.0129,7.0091,7.0095,7.0091,7.0105,7.0185,7.0233,7.0165,7.0165,7.0181,7.0278,7.031,7.032,7.0446,7.0355,7.0361,7.0366,7.0369,7.0655,7.0658,0,0,0,0,0,0,6.9913,6.9936,7.0125,7.0133,7.0005,7.0098,7.0113,7.0159,7.0232,7.0241,7.0183,7.018,7.0299,7.0312,7.0325,7.0448,7.0363,7.037,7.0374,7.0652,7.0655,7.0659,0,0,0,0,0,0,6.9908,6.993,7.012,7.0034,7.0058,7.0105,7.0157,7.0163,7.0196,7.0246,7.0254,7.0208,7.0297,7.0314,7.0406,7.0452,7.0373,7.038,7.0648,7.0653,7.0657,7.0695,0,0,0,0,0,0,6.99,6.9928,6.9969,7.0035,7.0063,7.0201,7.016,7.0168,7.0209,7.0207,7.0271,7.0279,7.0296,7.0395,7.0414,7.0461,7.0386,7.0644,7.065,7.0656,7.0689,7.07,7.0709,0,0,0,0,0,6.9891,6.9973,6.9971,6.9994,7.0115,7.0204,7.0219,7.024,7.0213,7.0253,7.0285,7.0277,7.0444,7.0405,7.0425,7.0475,7.0641,7.0648,7.0655,7.0685,7.0698,7.0709,0,0,0,0,0,0,6.9908,6.9982,6.9981,7.0087,7.014,7.0203,7.0254,7.0253,7.0313,7.0307,7.0328,7.0343,7.0435,7.0464,7.0419,7.0577,7.0539,7.055,7.0554,7.0567,7.0576,7.0567,7.0392,0,0,0,0,0,6.9925,6.9994,7.0053,7.0141,7.0168,7.0207,7.0246,7.0258,7.0312,7.0333,7.0372,7.0423,7.0487,7.0529,7.059,7.0694,7.0706,7.0738,7.0748,7.0756,7.0765,7.0821,7.0835,7.0681,7.0681,7.0681,0,0,6.9959,7.0008,7.0049,7.0146,7.0188,7.0256,7.0225,7.0299,7.0349,7.0344,7.0434,7.0464,7.0522,7.062,7.0665,7.0647,7.081,7.0764,7.077,7.0775,7.0829,7.0844,7.0857,7.0686,7.0685,7.0685,0,0,7.0056,7.0101,7.0179,7.0222,7.0287,7.0312,7.0331,7.0395,7.0415,7.0506,7.0504,7.0562,7.0672,7.0714,7.0749,7.0861,7.0855,7.0881,7.0931,7.0985,7.0997,7.1008,7.1047,7.1061,7.089,7.089,7.089,0,7.009,7.0195,7.0218,7.0293,7.0335,7.0336,7.0414,7.0453,7.0534,7.0562,7.0541,7.0679,7.0718,7.0826,7.0853,7.0882,7.0902,7.0873,7.0994,7.1005,7.1015,7.1053,7.1068,7.0893,7.0892,7.0892,7.0892,0,7.0233,7.0306,7.036,7.0441,7.0489,7.0564,7.0597,7.0642,7.0649,7.0676,7.0767,7.0814,7.0885,7.0911,7.0918,7.1019,7.1006,7.099,7.0952,7.1032,7.1068,7.1082,7.0896,7.0895,7.0895,7.0894,0,0,7.0345,7.0438,7.0457,7.0494,7.0565,7.0621,7.0695,7.0767,7.0805,7.086,7.0922,7.1015,7.1,7.104,7.1051,7.1099,7.1184,7.1076,7.1078,7.1094,7.1297,7.1308,7.1325,7.118,7.1183,7.1186,7.1292,0,7.0449,7.0585,7.0607,7.0725,7.0791,7.0793,7.0858,7.0907,7.0934,7.0992,7.102,7.1086,7.1062,7.1086,7.1133,7.1164,7.1225,7.1156,7.1236,7.1238,7.1221,7.1344,7.1356,7.1454,7.1306,7.1308,7.131,0,7.0589,7.065,7.0776,7.0838,7.0866,7.0925,7.0992,7.1048,7.1103,7.1119,7.1164,7.117,7.1245,7.1204,7.1306,7.1259,7.1293,7.1313,7.1317,7.1325,7.1279,7.1354,7.1486,7.15,7.1332,7.133,7.1329,0,7.0657,7.0771,7.086,7.0891,7.0966,7.1007,7.1039,7.1092,7.1134,7.1191,7.1218,7.1283,7.1318,7.1367,7.1389,7.1357,7.1489,7.1451,7.1502,7.1502,7.153,7.1528,7.1669,7.1553,7.1552,7.1552,7.1552,0,7.0771,7.0847,7.0892,7.0947,7.1032,7.1056,7.1138,7.1169,7.1216,7.1275,7.1279,7.1334,7.136,7.1418,7.1435,7.1517,7.1532,7.1546,7.1549,7.1545,7.1543,7.1567,7.156,7.1556,7.1555,7.1554,7.1554,0,7.0862,7.0895,7.0993,7.1056,7.1074,7.1133,7.1186,7.1238,7.1264,7.1339,7.1357,7.1397,7.1466,7.1493,7.1576,7.1588,7.1681,7.168,7.1663,7.1664,7.1714,7.1709,7.1875,7.1897,7.1767,7.1768,7.1769,0,7.0932,7.0991,7.1061,7.1103,7.1137,7.1203,7.1246,7.1271,7.1315,7.1382,7.1425,7.1494,7.1551,7.1659,7.1694,7.1757,7.1757,7.1811,7.1766,7.176,7.1757,7.1753,7.1758,7.1818,7.182,7.1821,7.1822,0,7.1053,7.1067,7.113,7.1199,7.125,7.1305,7.1358,7.139,7.1423,7.1471,7.1543,7.1587,7.1672,7.174,7.1805,7.1835,7.1834,7.1836,7.1851,7.1847,7.1835,7.1841,7.1685,7.1832,7.1831,7.183,7.1829,7.1829,7.1136,7.1188,7.1246,7.1315,7.1358,7.1407,7.1459,7.1493,7.1553,7.1627,7.1637,7.1713,7.1765,7.1852,7.1886,7.1944,7.1929,7.1951,7.1957,7.1962,7.1965,7.1826,7.1955,7.1955,7.1955,7.1955,7.1955,0,7.1257,7.1294,7.1358,7.1433,7.1487,7.1483,7.1541,7.1586,7.1653,7.1703,7.1759,7.184,7.1905,7.1946,7.2011,7.2049,7.205,7.2066,7.2063,7.2069,7.1975,7.1955,7.2064,7.2064,7.2064,7.2064,7.2064,7.2064,7.1326,7.1414,7.1434,7.1543,7.1578,7.1655,7.1688,7.1733,7.1773,7.1864,7.1919,7.1946,7.1991,7.206,7.2119,7.2129,7.2152,7.2169,7.2177,7.2088,7.2076,7.2065,7.2047,7.2174,7.2174,7.2267,7.2268,7.2268]}]]